Regional Weather Roundup
Issued by NWS

Home | Current Version | Previous Version | Graphics & Text | Print | Product List | Glossary On
Versions: 1 2 3 4 5 6 7 8 9 10 11 12 13 14 15 16 17 18 19 20 21 22 23 24 25 26 27 28 29 30 31 32 33 34 35 36 37 38 39 40 41 42 43 44 45 46 47 48 49 50
928
ASUS43 KTOP 030108
RWRKS

WEATHER ROUNDUP FOR KANSAS
NATIONAL WEATHER SERVICE GOODLAND KS
800 PM CDT MON MAY 02 2016

NOTE:  "FAIR" INDICATES FEW OR NO CLOUDS BELOW 12,000 FEET WITH NO
SIGNIFICANT WEATHER AND/OR OBSTRUCTIONS TO VISIBILITY.

KSZ001>006-013>018-027>032-041>047-030200-
NORTHWEST KANSAS

CITY           SKY/WX    TMP DP  RH WIND       PRES   REMARKS
GOODLAND       CLEAR     58  29  33 N7        30.06F
HAYS           PTCLDY    61  37  41 N3        30.05F
HILL CITY      CLEAR     64  34  32 CALM      30.05S
RUSSELL        CLEAR     59  40  49 NE6       30.04F
$$

KSZ061>065-074>080-084>089-030200-
SOUTHWEST KANSAS

CITY           SKY/WX    TMP DP  RH WIND       PRES   REMARKS
DODGE CITY     CLEAR     57  36  45 W5        30.08F
ELKHART          N/A     59  31  34 N5          N/A
GARDEN CITY    CLEAR     58  32  37 W3        30.08S
GREAT BEND     CLEAR     61  37  41 N3        30.06S
LIBERAL        CLEAR     57  34  41 NW5       30.11S
PRATT          CLEAR     55  39  53 N6        30.07S
$$

KSZ066>073-081>083-090>101-030200-
SOUTHEAST KANSAS

CITY           SKY/WX    TMP DP  RH WIND       PRES   REMARKS
CHANUTE        CLOUDY    56  46  69 CALM      30.08S
COFFEYVILLE    CLEAR     56  46  69 CALM      30.08S
HUTCHINSON     PTCLDY    61  37  41 CALM      30.07S
MEDICINE LODGE   N/A     60  38  43 N6        30.07S
NEWTON         CLEAR     57  37  47 N5        30.09S
PARSONS        CLOUDY    57  45  64 N5        30.09R
WICHITA INTL   PTCLDY    60  37  42 N6        30.07S
WICHITA JABRA  CLEAR     58  42  55 N3        30.07S
WINFIELD       PTCLDY    58  44  60 CALM      30.25R
$$

KSZ007>012-019>026-033>040-048>060-102>105-030200-
NORTHEAST KANSAS

CITY           SKY/WX    TMP DP  RH WIND       PRES   REMARKS
CONCORDIA      PTCLDY    59  36  42 CALM      30.06S
EMPORIA        MOCLDY    56  43  61 E6        30.07S
LAWRENCE       PTCLDY    55  45  68 W3        30.07F
MANHATTAN      CLEAR     57  42  57 CALM      30.06S
MARYSVILLE     MOCLDY    57  45  62 CALM      30.06S
OLATHE IND     PTCLDY    54  45  71 W3        30.08S
OLATHE EXE     PTCLDY    53  44  71 NW3       30.07F
SALINA         CLEAR     62  35  36 CALM      30.07S
TOPEKA BILLARD CLEAR     56  45  66 CALM      30.07F
TOPEKA FORBES  PTCLDY    57  46  66 CALM      30.07F
$$




USA.gov is the U.S. government's official web portal to all federal, state and local government web resources and services.